CAPE
nan nan nan 5 5 20 24 4 nan nan nan nan nan nan nan nan nan nan nan nan nan nan nan nan nan nan nan nan nan nan nan nan nan nan nan nan nan nan nan nan nan nan nan nan nan nan nan nan nan nan nan nan nan nan nan nan nan nan nan nan nan nan nan nan nan nan nan nan nan nan nan nan nan nan nan nan nan nan nan nan nan nan nan nan nan nan
nan nan nan nan nan 3 19 6 nan nan nan nan nan nan nan nan nan nan nan nan nan nan nan nan nan nan nan nan nan nan nan nan nan nan nan nan nan nan nan nan nan nan nan nan nan nan nan nan nan nan nan nan nan nan nan nan nan nan nan nan nan nan nan nan nan nan nan nan nan nan nan nan nan nan nan nan nan nan nan nan nan nan nan nan nan 9
nan nan nan nan nan nan nan nan nan nan nan nan nan nan nan nan nan nan nan nan nan nan nan nan nan nan nan nan nan nan nan nan nan nan nan nan nan nan nan nan nan nan nan nan nan nan nan nan nan nan nan nan nan nan nan nan nan nan nan nan nan nan nan nan nan nan nan nan nan nan nan nan nan nan nan nan nan nan nan nan nan nan nan 1 1 25
nan nan nan nan nan nan nan nan nan nan nan nan nan nan nan nan nan nan nan nan nan nan nan nan nan nan nan nan nan nan nan nan nan nan nan nan nan nan nan nan nan nan nan nan nan nan nan nan nan nan nan nan nan nan nan nan nan nan nan nan nan nan nan nan nan nan nan nan nan nan nan nan nan nan nan nan nan nan nan nan nan nan nan 8 8 45
nan nan nan nan nan nan nan nan nan nan nan nan nan nan nan nan nan nan nan nan nan nan nan nan nan nan nan nan nan nan nan nan nan nan nan nan nan nan nan nan nan nan nan nan nan nan nan nan nan nan nan nan nan nan nan nan nan nan nan nan nan nan nan nan nan nan nan nan nan nan nan nan nan nan nan nan nan nan nan nan nan 0 3 10 10 46
0 1 0 nan nan nan nan nan nan nan nan nan nan nan nan nan nan nan nan nan nan nan nan nan nan nan nan nan nan nan nan nan nan nan nan nan nan nan nan nan nan nan nan nan nan nan nan nan nan nan nan nan nan nan nan nan nan nan nan nan nan nan nan nan nan nan nan nan nan nan nan nan nan nan nan nan nan nan 1 1 1 3 6 14 14 46
0 0 nan nan nan nan nan nan nan nan nan nan nan nan nan nan nan nan nan nan nan nan nan nan nan nan nan nan nan nan nan nan nan nan nan nan nan nan nan nan nan nan nan nan nan nan nan nan nan nan nan nan nan nan nan nan nan nan nan nan nan nan nan nan nan nan nan nan nan nan nan nan nan nan nan nan nan nan 0 2 2 3 6 10 10 42
nan nan nan nan nan nan nan nan nan nan nan nan nan nan nan nan nan nan nan nan nan nan nan nan nan nan nan nan nan nan nan nan nan nan nan nan nan nan nan nan nan nan nan nan nan nan nan nan nan nan nan nan nan nan nan nan nan nan nan nan nan nan nan nan nan nan nan nan nan nan nan nan nan nan nan nan nan nan nan 0 0 1 1 2 2 3
nan nan nan nan nan nan nan nan nan nan nan nan nan nan nan nan nan nan nan nan nan nan nan nan nan nan nan nan nan nan nan nan nan nan nan nan nan nan 0 0 0 1 0 nan nan nan nan nan nan nan nan nan nan nan nan nan nan nan nan nan nan nan nan nan nan nan nan nan nan nan nan nan nan nan nan nan nan nan nan nan nan 1 2 2 2 2
nan nan nan nan nan nan nan nan nan nan nan nan nan nan nan nan nan nan nan nan nan nan nan nan nan nan nan nan nan nan nan 0 3 3 3 nan 1 1 nan nan nan 0 0 0 0 0 0 nan nan nan nan nan nan nan nan nan nan nan nan nan nan nan nan nan nan nan nan nan nan nan nan nan nan nan nan nan nan nan nan nan nan nan nan 0 0 10
nan nan nan nan nan nan nan nan nan nan nan nan nan nan nan nan nan nan nan nan nan nan nan nan nan nan nan nan nan nan nan nan nan nan 1 0 1 1 nan nan nan 0 0 1 1 1 1 0 0 0 0 nan nan nan nan nan nan nan nan nan nan nan nan nan nan nan nan nan nan nan nan nan nan nan nan nan nan nan nan nan nan nan nan nan nan 1
nan nan nan nan nan nan nan nan nan nan nan nan nan nan nan nan nan nan nan nan nan nan nan nan nan nan nan nan nan nan nan nan nan nan nan nan nan nan nan nan nan nan 0 1 1 1 2 1 1 1 0 nan nan nan nan nan nan nan nan nan nan nan nan nan nan nan nan nan nan nan nan nan nan nan nan nan nan nan nan nan nan nan nan nan nan nan
nan nan nan nan nan nan nan nan nan nan nan nan nan nan nan nan nan nan nan nan nan nan nan nan nan nan nan nan nan nan nan nan nan nan nan nan nan nan nan nan nan nan nan nan nan nan 3 2 2 1 0 0 nan nan nan nan nan nan nan nan nan nan nan nan nan nan nan nan nan nan nan nan nan nan nan nan nan nan nan nan nan nan nan nan nan nan
nan nan nan nan nan nan nan nan nan nan nan nan nan nan nan nan nan nan nan nan nan nan nan nan nan nan nan nan nan nan nan nan nan nan nan nan nan nan nan nan nan nan nan nan nan nan 0 nan nan nan 1 1 0 0 0 0 0 0 0 1 1 1 0 0 0 0 0 0 0 0 0 nan nan nan nan nan nan nan nan nan nan nan nan nan nan 1
nan nan nan nan nan nan nan nan nan nan nan nan nan nan nan nan nan nan nan nan nan nan nan nan nan nan nan nan nan nan nan nan nan nan nan nan nan nan nan nan nan nan nan nan nan nan nan nan nan nan nan 0 1 1 1 3 3 3 3 3 3 3 2 2 2 2 2 2 2 2 2 1 1 1 1 0 0 0 nan nan nan nan nan 0 0 2
nan nan nan nan nan nan nan nan nan nan nan nan nan nan nan nan nan nan nan nan nan nan nan nan nan nan nan nan nan nan nan nan nan nan nan nan nan nan nan nan nan nan nan nan nan nan nan nan nan nan nan 0 1 1 1 6 6 4 3 3 3 2 2 2 2 2 2 2 2 2 1 1 1 1 1 0 0 0 0 nan nan nan 0 0 0 1
nan nan nan nan nan nan nan nan nan nan nan nan nan nan nan nan nan nan nan nan nan nan nan nan nan nan nan nan nan nan nan nan nan nan nan nan nan nan nan nan nan nan nan nan nan nan nan nan nan nan nan 4 2 2 2 3 3 4 4 3 3 2 2 2 2 3 2 2 2 2 2 2 1 1 1 1 1 1 0 0 0 0 0 0 0 0
nan nan nan nan nan nan nan nan nan nan nan nan nan nan nan nan nan nan nan nan nan nan nan nan nan nan nan nan nan nan nan nan nan nan nan nan nan nan nan nan nan nan nan nan nan nan nan nan nan nan 1 7 6 6 5 5 5 6 5 4 4 3 3 3 3 3 4 3 3 3 3 2 2 2 2 2 1 1 1 2 2 1 2 2 2 2
nan nan nan nan nan nan nan nan nan nan nan nan nan nan nan nan nan nan nan nan nan nan nan nan nan nan nan nan nan nan nan nan nan nan nan nan nan nan nan nan nan nan nan nan nan nan nan nan nan 2 9 8 7 7 7 7 7 7 6 5 5 5 5 5 5 5 5 5 4 4 3 3 2 2 2 2 2 2 2 3 3 3 3 3 3 4
nan nan nan nan nan nan nan nan nan nan nan nan nan nan nan nan nan nan nan nan nan nan nan nan nan nan nan nan nan nan nan nan nan nan nan nan nan nan nan nan nan nan nan nan nan nan nan nan nan nan 7 8 9 9 9 9 9 8 7 7 7 6 5 6 6 6 5 6 5 5 4 3 4 4 3 3 4 4 4 4 4 4 4 4 4 5
nan nan nan nan nan nan nan nan nan nan nan nan nan nan nan nan nan nan nan nan nan nan nan nan nan nan nan nan 0 0 nan nan nan nan nan nan nan nan nan nan nan nan nan nan nan nan nan nan nan nan 7 10 10 10 10 10 10 10 9 8 8 7 7 7 7 6 6 6 6 6 5 5 5 5 4 5 4 4 5 6 6 5 6 6 6 6
nan nan nan nan nan nan nan nan 0 0 nan nan nan nan nan nan nan nan nan nan nan nan nan nan nan nan nan nan nan nan nan nan nan nan nan nan nan nan nan nan nan nan nan nan nan nan nan nan nan nan 13 15 12 12 12 12 12 12 11 9 9 9 8 8 8 7 7 8 7 7 7 6 6 6 6 5 6 6 6 7 7 7 7 7 7 7
nan nan nan nan nan nan nan nan nan nan nan nan nan nan nan nan nan nan nan nan nan nan nan nan nan nan nan nan nan nan nan nan nan nan nan nan nan nan nan nan nan nan nan nan nan nan nan nan nan nan 13 18 15 15 14 14 14 13 12 11 11 10 9 9 9 9 9 8 8 8 8 8 7 7 7 6 7 7 7 8 8 7 7 7 7 7
nan nan nan nan nan nan nan nan nan nan nan nan nan nan nan nan nan nan nan nan nan nan nan nan nan nan nan nan nan nan nan nan nan nan nan nan nan nan nan nan nan nan nan nan nan nan nan nan nan nan nan 14 18 18 17 15 15 14 13 13 13 12 11 10 10 10 10 9 9 9 9 9 9 9 8 7 7 7 8 7 7 8 8 7 7 7
nan nan nan nan nan nan nan nan nan nan nan nan nan nan nan nan nan nan nan nan nan nan nan nan nan nan nan nan nan nan nan nan nan nan nan nan nan nan nan nan nan nan nan nan nan nan nan nan nan nan nan nan 12 12 17 16 16 15 14 14 14 13 12 13 13 10 11 10 10 10 10 10 10 10 10 9 8 8 8 7 7 7 7 6 6 6
nan nan nan 1 1 3 3 4 2 2 0 nan nan nan nan nan nan nan nan nan nan nan nan nan nan nan nan nan nan nan nan nan nan nan nan nan nan nan nan nan nan nan nan nan nan nan nan nan nan nan nan nan 13 13 13 20 20 18 15 15 15 16 14 13 13 12 11 12 11 11 11 11 10 10 9 9 8 8 7 6 6 6 5 4 4 4
8 8 10 10 10 9 7 7 6 6 4 2 nan nan nan nan nan nan nan nan nan nan nan nan nan nan nan nan nan nan nan nan nan nan nan nan nan nan nan nan nan nan nan nan nan nan nan nan nan nan nan nan 1 1 10 14 14 16 17 17 17 17 15 15 15 15 14 13 12 12 12 11 10 10 9 8 7 7 6 5 5 3 2 1 1 2
9 9 9 10 10 9 8 7 6 6 6 5 4 4 nan nan nan nan nan nan nan nan nan nan nan nan nan nan nan nan nan nan nan nan nan nan nan nan nan nan nan nan nan nan nan 0 2 0 0 nan nan nan nan nan 0 7 7 10 15 16 16 17 16 16 16 16 17 15 13 13 12 11 9 9 9 8 6 6 5 3 3 2 1 nan nan nan
2 2 4 7 7 10 13 12 10 10 9 8 5 5 nan nan nan nan nan nan nan nan nan nan nan nan nan nan nan nan nan nan nan nan nan nan nan nan nan nan nan nan nan nan nan 0 0 nan nan nan nan nan nan nan nan 1 1 8 14 14 14 16 15 16 16 16 15 14 12 12 12 11 9 9 8 6 6 6 3 3 3 2 0 nan nan nan
0 0 1 1 1 1 1 2 11 11 12 11 8 8 nan nan nan nan nan nan nan nan nan nan nan nan nan nan nan nan nan nan nan nan nan nan nan nan nan nan nan nan nan nan nan nan nan nan nan nan nan nan nan nan nan nan nan nan 8 17 17 15 14 14 14 12 12 11 10 10 9 8 8 8 6 5 4 4 3 3 3 1 nan nan nan nan
nan nan nan nan nan nan nan nan 0 0 3 2 1 1 nan nan nan nan nan nan nan nan nan nan nan nan nan nan nan nan nan nan nan nan nan nan nan nan nan nan nan nan nan nan nan nan nan nan nan nan nan nan nan nan nan nan nan nan nan 2 2 12 13 9 9 8 9 8 8 8 7 6 6 6 4 3 3 3 2 2 2 nan nan nan nan nan
nan nan nan nan nan nan nan nan nan nan nan nan nan nan 0 nan nan nan nan nan nan nan nan nan nan nan nan nan nan nan nan nan nan nan nan nan nan nan nan nan nan nan nan nan nan nan nan nan nan nan nan nan nan nan nan nan nan nan nan nan nan nan 2 2 2 2 3 5 4 4 2 1 1 1 0 0 nan nan nan 0 0 nan nan nan nan nan
nan nan nan nan nan nan nan nan nan nan nan nan nan nan nan nan nan nan nan nan nan nan nan nan nan nan nan nan nan nan nan nan 1 1 nan nan nan nan nan nan nan nan nan nan nan nan nan nan nan nan nan nan nan nan nan nan nan nan nan nan nan nan nan nan nan nan nan nan nan nan 1 0 0 0 nan nan nan nan nan nan nan nan nan nan nan nan
nan nan nan nan nan nan nan nan nan nan nan nan nan nan nan nan nan nan nan nan nan nan nan nan nan nan nan nan nan nan nan nan 1 1 nan nan nan nan nan nan nan nan nan nan nan nan nan nan nan nan nan nan nan nan nan nan nan nan nan nan nan nan nan nan nan nan nan nan nan nan nan nan nan nan nan nan nan nan nan nan nan nan nan nan nan nan
nan nan nan nan nan nan nan nan nan nan nan nan nan nan nan nan nan nan nan nan nan nan nan nan nan nan nan nan nan nan nan nan nan nan nan nan nan nan nan nan nan nan nan nan nan nan nan nan nan nan nan nan nan nan nan nan nan nan nan nan nan nan nan nan nan nan nan nan nan nan nan nan nan nan nan nan nan nan nan nan nan nan nan nan nan nan
nan nan nan nan nan nan nan nan nan nan nan nan nan nan nan nan nan nan nan nan nan nan nan nan nan nan nan nan nan nan nan nan nan nan nan nan nan nan nan nan nan nan nan nan nan nan nan nan nan nan nan nan nan nan nan nan nan nan nan nan nan nan nan nan nan nan nan nan nan nan nan nan nan nan nan nan nan nan nan nan nan nan nan nan nan nan
nan nan nan nan nan nan nan nan nan nan nan nan nan nan nan nan nan nan nan nan nan nan nan nan nan nan nan nan nan nan nan nan nan nan nan nan nan nan nan nan nan nan nan nan nan nan nan nan nan nan nan nan nan nan nan nan nan nan nan nan nan nan nan nan nan nan nan nan nan nan nan nan nan nan nan nan nan nan nan nan nan nan nan nan nan nan
nan nan nan nan nan nan nan nan nan nan nan nan nan nan nan nan nan nan nan nan nan nan nan nan nan nan nan nan nan nan nan nan nan nan nan nan nan nan nan nan nan nan nan nan nan nan nan nan nan nan nan nan nan nan nan nan nan nan nan nan nan nan nan nan nan nan nan nan nan nan nan nan nan nan nan nan nan nan nan nan nan nan nan nan nan nan
nan nan nan nan nan nan nan nan nan nan nan nan nan nan nan nan nan nan nan nan nan nan nan nan nan nan nan nan nan nan nan nan nan nan nan nan nan nan nan nan nan nan nan nan nan nan nan nan nan nan nan nan nan nan nan nan nan nan nan nan nan nan nan nan nan nan nan nan nan nan nan nan nan nan nan nan nan nan nan nan nan nan nan nan nan nan
nan nan nan nan nan nan nan nan nan nan nan nan nan nan nan nan nan nan nan nan nan nan nan nan nan nan nan nan nan nan nan nan nan nan nan nan nan nan nan nan nan nan nan nan nan nan nan nan nan nan nan nan nan nan nan nan nan nan nan nan nan nan nan nan nan nan nan nan nan nan nan nan nan nan nan nan nan nan nan nan nan nan nan nan nan nan
nan nan nan nan nan nan nan nan nan nan nan nan nan nan nan nan nan nan nan nan nan nan nan nan nan nan nan nan nan nan nan nan nan nan nan nan nan nan nan nan nan nan nan nan nan nan nan nan nan nan nan nan nan nan nan nan nan nan nan nan nan nan nan nan nan nan nan nan nan nan nan nan nan nan nan nan nan nan nan nan nan nan nan nan nan nan
nan nan nan nan nan nan nan nan nan nan nan nan nan nan nan nan nan nan nan nan nan nan nan nan nan nan nan nan nan nan nan nan nan nan nan nan nan nan nan nan nan nan nan nan nan nan nan nan nan nan nan nan nan nan nan nan nan nan nan nan nan nan nan nan nan nan nan nan nan nan nan nan nan nan nan nan nan nan nan nan nan nan nan nan nan nan
nan nan nan nan nan nan nan nan nan nan nan nan nan nan nan nan nan nan nan nan nan nan nan nan nan nan nan nan nan nan nan nan nan nan nan nan nan nan nan nan nan nan nan nan nan nan nan nan nan nan nan nan nan nan nan nan nan nan nan nan nan nan nan nan nan nan nan nan nan nan nan nan nan nan nan nan nan nan nan nan nan nan nan nan nan nan
nan nan nan nan nan nan nan nan nan nan nan nan nan nan nan nan nan nan nan nan nan nan nan nan nan nan nan nan nan nan nan nan nan nan nan nan nan nan nan nan nan nan nan nan nan nan nan nan nan nan nan nan nan nan nan nan nan nan nan nan nan nan nan nan nan nan nan nan nan nan nan nan nan nan nan nan nan nan nan nan nan nan nan nan nan nan
nan nan nan nan nan nan nan nan nan nan nan nan nan nan nan nan nan nan nan nan nan nan nan nan nan nan nan nan nan nan nan nan nan nan nan nan nan nan nan nan nan nan nan nan nan nan nan nan nan nan nan nan nan nan nan nan nan nan nan nan nan nan nan nan nan nan nan nan nan nan nan nan nan nan nan nan nan nan nan nan nan nan nan nan nan nan
nan nan nan nan nan nan nan nan nan nan nan nan nan nan nan nan nan nan nan nan nan nan nan nan nan nan nan nan nan nan nan nan nan nan nan nan nan nan nan nan nan nan nan nan nan nan nan nan nan nan nan nan nan nan nan nan nan nan nan nan nan nan nan nan nan nan nan nan nan nan nan nan nan nan nan nan nan nan nan nan nan nan nan nan nan nan
nan nan nan nan nan nan nan nan nan nan nan nan nan nan nan nan nan nan nan nan nan nan nan nan nan nan nan nan nan nan nan nan nan nan nan nan nan nan nan nan nan nan nan nan nan nan nan nan nan nan nan nan nan nan nan nan nan nan nan nan nan nan nan nan nan nan nan nan nan nan nan nan nan nan nan nan nan nan nan nan nan nan nan nan nan nan
nan nan nan nan nan nan nan nan nan nan nan nan nan nan nan nan nan nan nan nan nan nan nan nan nan nan nan nan nan nan nan nan nan nan nan nan nan nan nan nan nan nan nan nan nan nan nan nan nan nan nan nan nan nan nan nan nan nan nan nan nan nan nan nan nan nan nan nan nan nan nan nan nan nan nan nan nan nan nan nan nan nan nan nan nan nan
nan nan nan nan nan nan nan nan nan nan nan nan nan nan nan nan nan nan nan nan nan nan nan nan nan nan nan nan nan nan nan nan nan nan nan nan nan nan nan nan nan nan nan nan nan nan nan nan nan nan nan nan nan nan nan nan nan nan nan nan nan nan nan nan nan nan nan nan nan nan nan nan nan nan nan nan nan nan nan nan nan nan nan nan nan nan
nan nan nan nan nan nan nan nan nan nan nan nan nan nan nan nan nan nan nan nan nan nan nan nan nan nan nan nan nan nan nan nan nan nan nan nan nan nan nan nan nan nan nan nan nan nan nan nan nan nan nan nan nan nan nan nan nan nan nan nan nan nan nan nan nan nan nan nan nan nan nan nan nan nan nan nan nan nan nan nan nan nan nan nan nan nan
nan nan nan nan nan nan nan nan nan nan nan nan nan nan nan nan nan nan nan nan nan nan nan nan nan nan nan nan nan nan nan nan nan nan nan nan nan nan nan nan nan nan nan nan nan nan nan nan nan nan nan nan nan nan nan nan nan nan nan nan nan nan nan nan nan nan nan nan nan nan nan nan nan nan nan nan nan nan nan nan nan nan nan nan nan nan
CIN
nan nan nan -183 -183 -99 -102 -158 nan nan nan nan nan nan nan nan nan nan nan nan nan nan nan nan nan nan nan nan nan nan nan nan nan nan nan nan nan nan nan nan nan nan nan nan nan nan nan nan nan nan nan nan nan nan nan nan nan nan nan nan nan nan nan nan nan nan nan nan nan nan nan nan nan nan nan nan nan nan nan nan nan nan nan nan nan nan
nan nan nan nan nan -112 -89 -141 nan nan nan nan nan nan nan nan nan nan nan nan nan nan nan nan nan nan nan nan nan nan nan nan nan nan nan nan nan nan nan nan nan nan nan nan nan nan nan nan nan nan nan nan nan nan nan nan nan nan nan nan nan nan nan nan nan nan nan nan nan nan nan nan nan nan nan nan nan nan nan nan nan nan nan nan nan -0
nan nan nan nan nan nan nan nan nan nan nan nan nan nan nan nan nan nan nan nan nan nan nan nan nan nan nan nan nan nan nan nan nan nan nan nan nan nan nan nan nan nan nan nan nan nan nan nan nan nan nan nan nan nan nan nan nan nan nan nan nan nan nan nan nan nan nan nan nan nan nan nan nan nan nan nan nan nan nan nan nan nan nan -0 -0 -0
nan nan nan nan nan nan nan nan nan nan nan nan nan nan nan nan nan nan nan nan nan nan nan nan nan nan nan nan nan nan nan nan nan nan nan nan nan nan nan nan nan nan nan nan nan nan nan nan nan nan nan nan nan nan nan nan nan nan nan nan nan nan nan nan nan nan nan nan nan nan nan nan nan nan nan nan nan nan nan nan nan nan nan -0 -0 -0
nan nan nan nan nan nan nan nan nan nan nan nan nan nan nan nan nan nan nan nan nan nan nan nan nan nan nan nan nan nan nan nan nan nan nan nan nan nan nan nan nan nan nan nan nan nan nan nan nan nan nan nan nan nan nan nan nan nan nan nan nan nan nan nan nan nan nan nan nan nan nan nan nan nan nan nan nan nan nan nan nan -0 -0 -0 -0 -0
-0 -0 -0 nan nan nan nan nan nan nan nan nan nan nan nan nan nan nan nan nan nan nan nan nan nan nan nan nan nan nan nan nan nan nan nan nan nan nan nan nan nan nan nan nan nan nan nan nan nan nan nan nan nan nan nan nan nan nan nan nan nan nan nan nan nan nan nan nan nan nan nan nan nan nan nan nan nan nan -1 -1 -1 -0 -0 -0 -0 -0
-0 -0 nan nan nan nan nan nan nan nan nan nan nan nan nan nan nan nan nan nan nan nan nan nan nan nan nan nan nan nan nan nan nan nan nan nan nan nan nan nan nan nan nan nan nan nan nan nan nan nan nan nan nan nan nan nan nan nan nan nan nan nan nan nan nan nan nan nan nan nan nan nan nan nan nan nan nan nan -1 -0 -0 -0 -0 -0 -0 -0
nan nan nan nan nan nan nan nan nan nan nan nan nan nan nan nan nan nan nan nan nan nan nan nan nan nan nan nan nan nan nan nan nan nan nan nan nan nan nan nan nan nan nan nan nan nan nan nan nan nan nan nan nan nan nan nan nan nan nan nan nan nan nan nan nan nan nan nan nan nan nan nan nan nan nan nan nan nan nan -0 -0 -0 -0 -0 -0 -0
nan nan nan nan nan nan nan nan nan nan nan nan nan nan nan nan nan nan nan nan nan nan nan nan nan nan nan nan nan nan nan nan nan nan nan nan nan nan -0 -0 -0 -0 -0 nan nan nan nan nan nan nan nan nan nan nan nan nan nan nan nan nan nan nan nan nan nan nan nan nan nan nan nan nan nan nan nan nan nan nan nan nan nan -0 -0 -0 -0 -0
nan nan nan nan nan nan nan nan nan nan nan nan nan nan nan nan nan nan nan nan nan nan nan nan nan nan nan nan nan nan nan -0 -0 -0 -0 nan -0 -0 nan nan nan -0 -0 -0 -0 -0 -0 nan nan nan nan nan nan nan nan nan nan nan nan nan nan nan nan nan nan nan nan nan nan nan nan nan nan nan nan nan nan nan nan nan nan nan nan -1 -1 -1
nan nan nan nan nan nan nan nan nan nan nan nan nan nan nan nan nan nan nan nan nan nan nan nan nan nan nan nan nan nan nan nan nan nan -0 -0 -0 -0 nan nan nan -0 -0 -0 -0 -0 -0 -0 -0 -0 -0 nan nan nan nan nan nan nan nan nan nan nan nan nan nan nan nan nan nan nan nan nan nan nan nan nan nan nan nan nan nan nan nan nan nan -85
nan nan nan nan nan nan nan nan nan nan nan nan nan nan nan nan nan nan nan nan nan nan nan nan nan nan nan nan nan nan nan nan nan nan nan nan nan nan nan nan nan nan -0 -0 -0 -0 -0 -0 -0 -0 -0 nan nan nan nan nan nan nan nan nan nan nan nan nan nan nan nan nan nan nan nan nan nan nan nan nan nan nan nan nan nan nan nan nan nan nan
nan nan nan nan nan nan nan nan nan nan nan nan nan nan nan nan nan nan nan nan nan nan nan nan nan nan nan nan nan nan nan nan nan nan nan nan nan nan nan nan nan nan nan nan nan nan -0 -0 -0 -0 -0 -0 nan nan nan nan nan nan nan nan nan nan nan nan nan nan nan nan nan nan nan nan nan nan nan nan nan nan nan nan nan nan nan nan nan nan
nan nan nan nan nan nan nan nan nan nan nan nan nan nan nan nan nan nan nan nan nan nan nan nan nan nan nan nan nan nan nan nan nan nan nan nan nan nan nan nan nan nan nan nan nan nan -0 nan nan nan -0 -0 -0 -0 -0 -0 -0 -0 -0 -0 -0 -0 -0 -0 -0 -0 -0 -0 -0 -0 -0 nan nan nan nan nan nan nan nan nan nan nan nan nan nan -0
nan nan nan nan nan nan nan nan nan nan nan nan nan nan nan nan nan nan nan nan nan nan nan nan nan nan nan nan nan nan nan nan nan nan nan nan nan nan nan nan nan nan nan nan nan nan nan nan nan nan nan -0 -0 -0 -0 -0 -0 -0 -0 -0 -0 -0 -0 -0 -0 -0 -0 -0 -0 -0 -0 -0 -0 -0 -0 -0 -0 -0 nan nan nan nan nan -1 -1 -1
nan nan nan nan nan nan nan nan nan nan nan nan nan nan nan nan nan nan nan nan nan nan nan nan nan nan nan nan nan nan nan nan nan nan nan nan nan nan nan nan nan nan nan nan nan nan nan nan nan nan nan -0 -0 -0 -1 -0 -0 -0 -0 -0 -0 -0 -0 -0 -0 -0 -0 -0 -0 -0 -0 -0 -0 -0 -0 -0 -0 -0 -0 nan nan nan -0 -0 -0 -0
nan nan nan nan nan nan nan nan nan nan nan nan nan nan nan nan nan nan nan nan nan nan nan nan nan nan nan nan nan nan nan nan nan nan nan nan nan nan nan nan nan nan nan nan nan nan nan nan nan nan nan -0 -0 -0 -0 -0 -0 -0 -0 -0 -0 -0 -0 -0 -0 -0 -0 -0 -0 -0 -0 -0 -0 -0 -0 -0 -0 -0 -0 -0 -0 -0 -0 -0 -0 -0
nan nan nan nan nan nan nan nan nan nan nan nan nan nan nan nan nan nan nan nan nan nan nan nan nan nan nan nan nan nan nan nan nan nan nan nan nan nan nan nan nan nan nan nan nan nan nan nan nan nan -0 -0 -0 -0 -0 -0 -0 -0 -0 -0 -0 -0 -0 -0 -0 -0 -0 -0 -0 -0 -0 -0 -0 -0 -0 -0 -0 -0 -0 -0 -0 -0 -0 -0 -0 -0
nan nan nan nan nan nan nan nan nan nan nan nan nan nan nan nan nan nan nan nan nan nan nan nan nan nan nan nan nan nan nan nan nan nan nan nan nan nan nan nan nan nan nan nan nan nan nan nan nan -0 -0 -0 -0 -0 -0 -0 -0 -0 -0 -0 -0 -0 -0 -0 -0 -0 -0 -0 -0 -0 -0 -0 -0 -0 -0 -0 -0 -0 -0 -0 -0 -0 -0 -0 -0 -0
nan nan nan nan nan nan nan nan nan nan nan nan nan nan nan nan nan nan nan nan nan nan nan nan nan nan nan nan nan nan nan nan nan nan nan nan nan nan nan nan nan nan nan nan nan nan nan nan nan nan -0 -0 -0 -0 -0 -0 -0 -0 -0 -0 -0 -0 -0 -0 -0 -0 -0 -0 -0 -0 -0 -0 -0 -0 -0 -0 -0 -0 -0 -0 -0 -0 -0 -0 -0 -0
nan nan nan nan nan nan nan nan nan nan nan nan nan nan nan nan nan nan nan nan nan nan nan nan nan nan nan nan -0 -0 nan nan nan nan nan nan nan nan nan nan nan nan nan nan nan nan nan nan nan nan -0 -0 -0 -0 -0 -0 -0 -0 -0 -0 -0 -0 -0 -0 -0 -0 -0 -0 -0 -0 -0 -0 -0 -0 -0 -0 -0 -0 -0 -0 -0 -0 -0 -0 -0 -0
nan nan nan nan nan nan nan nan -0 -0 nan nan nan nan nan nan nan nan nan nan nan nan nan nan nan nan nan nan nan nan nan nan nan nan nan nan nan nan nan nan nan nan nan nan nan nan nan nan nan nan -0 -0 -0 -0 -0 -0 -0 -0 -0 -0 -0 -0 -0 -0 -0 -0 -0 -0 -0 -0 -0 -0 -0 -0 -0 -0 -0 -0 -0 -0 -0 -0 -0 -0 -0 -0
nan nan nan nan nan nan nan nan nan nan nan nan nan nan nan nan nan nan nan nan nan nan nan nan nan nan nan nan nan nan nan nan nan nan nan nan nan nan nan nan nan nan nan nan nan nan nan nan nan nan -0 -0 -0 -0 -0 -0 -0 -0 -0 -0 -0 -0 -0 -0 -0 -0 -0 -0 -0 -0 -0 -0 -0 -0 -0 -0 -0 -0 -0 -0 -0 -0 -0 -0 -0 -0
nan nan nan nan nan nan nan nan nan nan nan nan nan nan nan nan nan nan nan nan nan nan nan nan nan nan nan nan nan nan nan nan nan nan nan nan nan nan nan nan nan nan nan nan nan nan nan nan nan nan nan -0 -0 -0 -0 -0 -0 -0 -0 -0 -0 -0 -0 -0 -0 -0 -0 -0 -0 -0 -0 -0 -0 -0 -0 -0 -0 -0 -0 -0 -0 -0 -0 -0 -0 -0
nan nan nan nan nan nan nan nan nan nan nan nan nan nan nan nan nan nan nan nan nan nan nan nan nan nan nan nan nan nan nan nan nan nan nan nan nan nan nan nan nan nan nan nan nan nan nan nan nan nan nan nan -0 -0 -0 -0 -0 -0 -0 -0 -0 -0 -0 -0 -0 -0 -0 -0 -0 -0 -0 -0 -0 -0 -0 -0 -0 -0 -0 -0 -0 -0 -0 -0 -0 -0
nan nan nan -1 -1 -0 -0 -0 -0 -0 -0 nan nan nan nan nan nan nan nan nan nan nan nan nan nan nan nan nan nan nan nan nan nan nan nan nan nan nan nan nan nan nan nan nan nan nan nan nan nan nan nan nan -0 -0 -0 -0 -0 -0 -0 -0 -0 -0 -0 -0 -0 -0 -0 -0 -0 -0 -0 -0 -0 -0 -0 -0 -0 -0 -0 -0 -0 -0 -0 -0 -0 -0
-0 -0 -0 -0 -0 -0 -0 -0 -0 -0 -0 -0 nan nan nan nan nan nan nan nan nan nan nan nan nan nan nan nan nan nan nan nan nan nan nan nan nan nan nan nan nan nan nan nan nan nan nan nan nan nan nan nan -0 -0 -0 -0 -0 -0 -0 -0 -0 -0 -0 -0 -0 -0 -0 -0 -0 -0 -0 -0 -0 -0 -0 -0 -0 -0 -0 -0 -0 -0 -0 -0 -0 -0
-0 -0 -0 -0 -0 -0 -0 -0 -0 -0 -0 -0 -0 -0 nan nan nan nan nan nan nan nan nan nan nan nan nan nan nan nan nan nan nan nan nan nan nan nan nan nan nan nan nan nan nan -0 -0 -0 -0 nan nan nan nan nan -0 -0 -0 -0 -0 -0 -0 -0 -0 -0 -0 -0 -0 -0 -0 -0 -0 -0 -0 -0 -0 -0 -0 -0 -0 -0 -0 -0 -0 nan nan nan
-0 -0 -0 -0 -0 -0 -0 -0 -0 -0 -0 -0 -0 -0 nan nan nan nan nan nan nan nan nan nan nan nan nan nan nan nan nan nan nan nan nan nan nan nan nan nan nan nan nan nan nan -1 -0 nan nan nan nan nan nan nan nan -0 -0 -0 -0 -0 -0 -0 -0 -0 -0 -0 -0 -0 -0 -0 -0 -0 -0 -0 -0 -0 -0 -0 -0 -0 -0 -0 -0 nan nan nan
-0 -0 -0 -0 -0 -0 -0 -0 -0 -0 -0 -0 -0 -0 nan nan nan nan nan nan nan nan nan nan nan nan nan nan nan nan nan nan nan nan nan nan nan nan nan nan nan nan nan nan nan nan nan nan nan nan nan nan nan nan nan nan nan nan -0 -0 -0 -0 -0 -0 -0 -0 -0 -0 -0 -0 -0 -0 -0 -0 -0 -0 -0 -0 -0 -0 -0 -0 nan nan nan nan
nan nan nan nan nan nan nan nan -0 -0 -0 -0 -0 -0 nan nan nan nan nan nan nan nan nan nan nan nan nan nan nan nan nan nan nan nan nan nan nan nan nan nan nan nan nan nan nan nan nan nan nan nan nan nan nan nan nan nan nan nan nan -2 -2 -0 -0 -0 -0 -0 -0 -0 -0 -0 -0 -0 -0 -0 -0 -0 -0 -0 -0 -0 -0 nan nan nan nan nan
nan nan nan nan nan nan nan nan nan nan nan nan nan nan -0 nan nan nan nan nan nan nan nan nan nan nan nan nan nan nan nan nan nan nan nan nan nan nan nan nan nan nan nan nan nan nan nan nan nan nan nan nan nan nan nan nan nan nan nan nan nan nan -0 -0 -0 -0 -0 -0 -0 -0 -0 -0 -0 -0 -0 -0 nan nan nan -0 -0 nan nan nan nan nan
nan nan nan nan nan nan nan nan nan nan nan nan nan nan nan nan nan nan nan nan nan nan nan nan nan nan nan nan nan nan nan nan -0 -0 nan nan nan nan nan nan nan nan nan nan nan nan nan nan nan nan nan nan nan nan nan nan nan nan nan nan nan nan nan nan nan nan nan nan nan nan -0 -0 -0 -0 nan nan nan nan nan nan nan nan nan nan nan nan
nan nan nan nan nan nan nan nan nan nan nan nan nan nan nan nan nan nan nan nan nan nan nan nan nan nan nan nan nan nan nan nan -0 -0 nan nan nan nan nan nan nan nan nan nan nan nan nan nan nan nan nan nan nan nan nan nan nan nan nan nan nan nan nan nan nan nan nan nan nan nan nan nan nan nan nan nan nan nan nan nan nan nan nan nan nan nan
nan nan nan nan nan nan nan nan nan nan nan nan nan nan nan nan nan nan nan nan nan nan nan nan nan nan nan nan nan nan nan nan nan nan nan nan nan nan nan nan nan nan nan nan nan nan nan nan nan nan nan nan nan nan nan nan nan nan nan nan nan nan nan nan nan nan nan nan nan nan nan nan nan nan nan nan nan nan nan nan nan nan nan nan nan nan
nan nan nan nan nan nan nan nan nan nan nan nan nan nan nan nan nan nan nan nan nan nan nan nan nan nan nan nan nan nan nan nan nan nan nan nan nan nan nan nan nan nan nan nan nan nan nan nan nan nan nan nan nan nan nan nan nan nan nan nan nan nan nan nan nan nan nan nan nan nan nan nan nan nan nan nan nan nan nan nan nan nan nan nan nan nan
nan nan nan nan nan nan nan nan nan nan nan nan nan nan nan nan nan nan nan nan nan nan nan nan nan nan nan nan nan nan nan nan nan nan nan nan nan nan nan nan nan nan nan nan nan nan nan nan nan nan nan nan nan nan nan nan nan nan nan nan nan nan nan nan nan nan nan nan nan nan nan nan nan nan nan nan nan nan nan nan nan nan nan nan nan nan
nan nan nan nan nan nan nan nan nan nan nan nan nan nan nan nan nan nan nan nan nan nan nan nan nan nan nan nan nan nan nan nan nan nan nan nan nan nan nan nan nan nan nan nan nan nan nan nan nan nan nan nan nan nan nan nan nan nan nan nan nan nan nan nan nan nan nan nan nan nan nan nan nan nan nan nan nan nan nan nan nan nan nan nan nan nan
nan nan nan nan nan nan nan nan nan nan nan nan nan nan nan nan nan nan nan nan nan nan nan nan nan nan nan nan nan nan nan nan nan nan nan nan nan nan nan nan nan nan nan nan nan nan nan nan nan nan nan nan nan nan nan nan nan nan nan nan nan nan nan nan nan nan nan nan nan nan nan nan nan nan nan nan nan nan nan nan nan nan nan nan nan nan
nan nan nan nan nan nan nan nan nan nan nan nan nan nan nan nan nan nan nan nan nan nan nan nan nan nan nan nan nan nan nan nan nan nan nan nan nan nan nan nan nan nan nan nan nan nan nan nan nan nan nan nan nan nan nan nan nan nan nan nan nan nan nan nan nan nan nan nan nan nan nan nan nan nan nan nan nan nan nan nan nan nan nan nan nan nan
nan nan nan nan nan nan nan nan nan nan nan nan nan nan nan nan nan nan nan nan nan nan nan nan nan nan nan nan nan nan nan nan nan nan nan nan nan nan nan nan nan nan nan nan nan nan nan nan nan nan nan nan nan nan nan nan nan nan nan nan nan nan nan nan nan nan nan nan nan nan nan nan nan nan nan nan nan nan nan nan nan nan nan nan nan nan
nan nan nan nan nan nan nan nan nan nan nan nan nan nan nan nan nan nan nan nan nan nan nan nan nan nan nan nan nan nan nan nan nan nan nan nan nan nan nan nan nan nan nan nan nan nan nan nan nan nan nan nan nan nan nan nan nan nan nan nan nan nan nan nan nan nan nan nan nan nan nan nan nan nan nan nan nan nan nan nan nan nan nan nan nan nan
nan nan nan nan nan nan nan nan nan nan nan nan nan nan nan nan nan nan nan nan nan nan nan nan nan nan nan nan nan nan nan nan nan nan nan nan nan nan nan nan nan nan nan nan nan nan nan nan nan nan nan nan nan nan nan nan nan nan nan nan nan nan nan nan nan nan nan nan nan nan nan nan nan nan nan nan nan nan nan nan nan nan nan nan nan nan
nan nan nan nan nan nan nan nan nan nan nan nan nan nan nan nan nan nan nan nan nan nan nan nan nan nan nan nan nan nan nan nan nan nan nan nan nan nan nan nan nan nan nan nan nan nan nan nan nan nan nan nan nan nan nan nan nan nan nan nan nan nan nan nan nan nan nan nan nan nan nan nan nan nan nan nan nan nan nan nan nan nan nan nan nan nan
nan nan nan nan nan nan nan nan nan nan nan nan nan nan nan nan nan nan nan nan nan nan nan nan nan nan nan nan nan nan nan nan nan nan nan nan nan nan nan nan nan nan nan nan nan nan nan nan nan nan nan nan nan nan nan nan nan nan nan nan nan nan nan nan nan nan nan nan nan nan nan nan nan nan nan nan nan nan nan nan nan nan nan nan nan nan
nan nan nan nan nan nan nan nan nan nan nan nan nan nan nan nan nan nan nan nan nan nan nan nan nan nan nan nan nan nan nan nan nan nan nan nan nan nan nan nan nan nan nan nan nan nan nan nan nan nan nan nan nan nan nan nan nan nan nan nan nan nan nan nan nan nan nan nan nan nan nan nan nan nan nan nan nan nan nan nan nan nan nan nan nan nan
nan nan nan nan nan nan nan nan nan nan nan nan nan nan nan nan nan nan nan nan nan nan nan nan nan nan nan nan nan nan nan nan nan nan nan nan nan nan nan nan nan nan nan nan nan nan nan nan nan nan nan nan nan nan nan nan nan nan nan nan nan nan nan nan nan nan nan nan nan nan nan nan nan nan nan nan nan nan nan nan nan nan nan nan nan nan
nan nan nan nan nan nan nan nan nan nan nan nan nan nan nan nan nan nan nan nan nan nan nan nan nan nan nan nan nan nan nan nan nan nan nan nan nan nan nan nan nan nan nan nan nan nan nan nan nan nan nan nan nan nan nan nan nan nan nan nan nan nan nan nan nan nan nan nan nan nan nan nan nan nan nan nan nan nan nan nan nan nan nan nan nan nan
nan nan nan nan nan nan nan nan nan nan nan nan nan nan nan nan nan nan nan nan nan nan nan nan nan nan nan nan nan nan nan nan nan nan nan nan nan nan nan nan nan nan nan nan nan nan nan nan nan nan nan nan nan nan nan nan nan nan nan nan nan nan nan nan nan nan nan nan nan nan nan nan nan nan nan nan nan nan nan nan nan nan nan nan nan nan
nan nan nan nan nan nan nan nan nan nan nan nan nan nan nan nan nan nan nan nan nan nan nan nan nan nan nan nan nan nan nan nan nan nan nan nan nan nan nan nan nan nan nan nan nan nan nan nan nan nan nan nan nan nan nan nan nan nan nan nan nan nan nan nan nan nan nan nan nan nan nan nan nan nan nan nan nan nan nan nan nan nan nan nan nan nan
nan nan nan nan nan nan nan nan nan nan nan nan nan nan nan nan nan nan nan nan nan nan nan nan nan nan nan nan nan nan nan nan nan nan nan nan nan nan nan nan nan nan nan nan nan nan nan nan nan nan nan nan nan nan nan nan nan nan nan nan nan nan nan nan nan nan nan nan nan nan nan nan nan nan nan nan nan nan nan nan nan nan nan nan nan nan
Wind_Speed
2 2 1 6 8 9 9 11 10 8 5 4 3 3 3 3 4 3 3 3 3 4 4 4 5 7 10 13 15 16 17 16 15 15 14 14 13 13 13 13 13 13 13 13 13 14 14 14 13 13 13 13 13 13 13 13 13 13 13 12 12 12 12 11 11 11 12 12 13 13 13 12 12 12 11 11 11 11 12 12 13 13 14 16 18 19
2 3 3 2 6 8 8 10 10 8 7 5 4 3 4 4 4 4 4 4 4 3 3 3 4 5 6 8 11 14 15 15 15 14 13 13 12 12 12 12 12 12 12 12 12 12 13 13 13 13 12 12 12 12 12 12 12 12 12 12 12 12 12 12 12 12 12 13 12 12 12 11 11 11 11 11 11 12 12 12 13 14 14 16 18 21
2 3 4 4 2 2 4 6 6 6 7 6 5 4 5 5 4 4 3 3 4 4 3 3 3 4 4 4 7 10 12 13 13 13 13 12 12 11 11 11 11 11 11 11 11 11 11 12 12 12 12 12 12 12 12 12 12 12 12 12 12 11 12 12 12 12 12 12 12 11 11 10 10 10 10 11 11 11 12 12 13 14 15 17 19 20
2 2 3 4 4 4 3 1 2 4 6 6 6 6 7 6 4 3 3 3 4 4 4 4 4 4 4 3 4 7 9 10 11 11 11 11 11 11 10 10 10 10 10 10 10 10 11 11 11 12 12 12 12 12 11 11 11 11 11 11 11 11 11 11 11 11 11 11 10 10 10 10 10 10 10 10 11 11 12 12 13 14 16 17 18 19
2 2 2 3 3 4 5 4 4 5 6 6 7 7 6 5 4 3 3 4 4 4 4 4 5 4 4 3 4 6 8 9 9 9 9 9 9 9 9 9 9 9 9 9 9 10 10 10 10 11 11 11 11 11 10 10 10 10 9 9 9 9 10 10 10 9 9 9 9 9 9 9 9 9 9 10 10 11 12 13 14 15 16 17 18 19
3 2 2 2 3 3 4 4 4 4 5 5 6 6 6 5 4 4 4 4 4 4 4 4 5 5 5 4 5 7 9 10 9 9 8 8 8 8 8 7 8 8 8 8 8 8 8 9 9 9 9 9 9 9 9 9 8 8 8 7 7 7 7 8 8 8 8 8 8 8 8 8 8 8 8 9 10 11 13 13 14 15 16 17 18 19
2 2 2 3 3 3 3 3 3 3 3 4 5 5 5 5 5 5 5 4 4 4 4 4 5 5 6 6 7 9 10 11 12 12 11 11 10 10 9 9 8 8 8 8 7 7 7 7 7 7 7 7 7 7 7 7 7 7 7 7 7 6 7 7 7 7 7 7 7 7 7 7 7 8 8 9 10 12 13 14 15 16 17 17 18 19
1 1 2 3 3 3 3 3 3 3 2 2 3 4 5 4 5 5 5 5 4 4 3 4 5 5 6 6 7 7 8 9 10 10 11 12 12 13 13 13 13 12 12 11 11 10 9 9 8 8 7 6 6 6 6 6 6 6 6 6 7 7 7 7 7 7 7 7 8 8 8 8 9 9 10 10 11 12 14 15 16 17 17 18 18 19
1 1 2 3 3 3 3 3 3 3 3 2 2 3 5 5 4 5 5 5 5 4 3 4 5 5 5 6 6 6 7 8 8 8 9 9 10 11 13 14 15 15 16 15 15 14 13 12 11 11 10 9 9 8 7 6 5 5 5 5 5 6 6 6 6 6 7 7 7 7 7 8 9 10 9 11 11 12 13 15 16 17 18 19 19 20
2 2 2 3 3 4 4 3 3 3 3 2 2 3 4 4 5 5 5 5 4 4 4 4 5 5 5 5 5 5 6 9 11 13 13 12 12 13 13 13 14 15 18 18 17 17 16 15 14 14 13 12 12 11 10 9 8 7 7 6 6 6 5 5 5 4 4 3 3 2 2 1 1 2 3 4 5 6 7 9 11 13 14 16 17 18
2 2 2 2 3 3 4 3 2 2 2 3 3 3 3 3 4 5 6 5 4 4 4 4 4 4 4 4 4 4 5 7 9 11 13 14 15 15 14 14 14 16 18 18 18 18 18 17 17 16 16 15 14 13 13 12 11 11 11 10 10 10 9 9 9 10 10 10 10 11 11 11 10 10 9 8 7 6 4 3 1 2 3 6 7 9
2 2 2 2 2 3 3 3 2 2 2 2 2 3 3 2 2 4 6 5 4 4 4 4 4 4 4 3 3 3 4 5 5 6 7 9 10 10 10 10 11 13 14 15 16 17 18 18 18 17 16 16 16 15 15 14 14 14 14 14 14 14 14 14 14 15 15 16 17 17 17 18 18 18 18 17 17 16 16 14 14 13 10 9 8 7
2 2 2 2 2 2 3 3 2 2 1 1 2 2 2 2 2 3 4 5 4 4 4 4 4 4 4 4 3 3 3 4 4 5 5 6 6 6 5 6 6 7 7 8 9 11 14 15 16 16 16 16 16 16 16 16 16 17 17 17 17 17 17 17 18 18 19 20 20 20 21 21 21 21 21 21 21 21 20 20 20 19 19 18 18 18
3 3 2 2 2 3 3 4 3 3 2 1 1 2 2 2 3 4 4 4 4 3 4 4 4 4 4 4 3 3 2 3 4 5 6 6 5 5 4 5 5 5 5 5 6 7 9 9 10 11 14 14 15 16 17 17 18 18 18 18 18 18 18 19 19 20 20 21 21 21 22 22 22 22 22 22 22 22 22 21 21 21 21 21 21 21
4 4 4 4 3 3 3 4 4 3 3 2 2 3 3 3 3 4 4 4 4 3 4 5 5 4 3 3 3 3 2 2 4 5 6 5 5 5 4 5 5 5 5 5 6 6 7 7 6 7 9 11 12 13 15 16 18 19 18 18 18 18 18 19 19 20 20 21 21 21 21 21 21 21 21 21 21 21 21 21 21 21 21 21 21 22
4 4 4 4 4 4 3 4 4 4 3 3 3 3 4 4 4 4 5 5 4 4 4 5 5 4 2 2 3 3 2 3 4 5 6 5 5 5 4 4 5 5 5 5 5 5 5 5 6 6 7 10 12 14 15 16 17 18 18 18 18 18 18 18 19 19 20 20 20 21 21 21 21 21 21 21 21 20 20 20 20 20 20 21 21 21
3 3 4 4 4 4 4 4 4 4 4 3 3 3 3 4 4 4 4 4 4 3 3 4 4 4 2 1 2 3 3 2 3 4 6 5 4 4 4 4 5 6 5 5 5 4 4 5 5 6 7 11 13 15 15 16 17 18 18 18 18 18 18 18 18 19 19 19 19 20 20 20 20 20 20 20 20 20 20 20 20 20 20 20 20 20
3 3 3 4 4 4 5 4 4 4 4 4 3 2 2 2 3 3 3 3 3 3 2 2 3 3 4 2 1 2 3 2 3 4 5 5 3 3 3 3 5 5 5 5 4 4 4 5 6 7 9 13 15 16 17 17 18 18 18 18 18 18 18 18 18 18 19 19 19 19 19 19 19 19 19 19 19 19 19 19 19 19 19 20 20 20
3 3 3 3 4 5 5 4 5 5 5 5 4 3 3 2 2 2 2 2 2 2 2 2 2 2 3 3 2 1 2 1 3 4 5 4 3 2 2 3 4 6 6 5 4 4 4 5 8 11 14 16 17 17 18 18 19 19 19 19 19 19 19 18 18 18 18 18 18 18 18 18 19 19 19 19 19 19 19 19 19 19 19 19 19 19
2 2 2 3 4 5 5 4 5 6 6 6 5 5 4 3 3 2 2 2 1 1 2 2 3 3 3 3 2 1 1 1 3 4 5 4 2 1 2 3 4 6 6 5 4 4 4 5 7 10 14 16 17 18 18 18 19 19 19 19 19 19 18 18 18 18 18 18 18 18 18 18 18 18 18 18 18 18 18 18 18 18 18 18 18 18
3 2 1 2 3 4 4 4 4 5 7 7 6 5 4 4 3 2 2 2 2 2 2 2 3 3 3 3 2 1 2 0 2 3 3 3 2 2 2 3 4 6 7 5 4 4 4 5 5 7 11 14 16 17 17 18 18 19 19 19 18 18 18 18 18 17 17 17 17 17 18 18 18 18 18 18 18 18 18 17 17 17 17 17 17 17
3 2 2 2 2 3 4 4 5 6 7 7 6 5 5 4 4 3 3 2 2 3 3 3 3 3 3 3 2 1 1 1 2 3 3 3 3 2 2 3 4 6 7 5 4 5 5 5 5 7 12 15 16 16 16 17 17 18 18 17 17 17 17 17 17 17 17 17 17 17 17 17 17 17 17 17 17 17 17 17 17 17 16 16 16 16
3 4 4 3 3 4 5 5 6 6 6 6 5 5 3 3 3 3 3 3 4 4 5 4 4 4 4 3 3 2 3 2 1 2 3 4 3 2 2 3 4 5 5 4 4 4 5 5 5 6 10 14 15 15 15 16 16 16 16 16 16 16 16 16 16 16 16 16 16 17 17 17 17 17 17 17 17 17 17 17 16 16 16 15 15 15
4 4 5 4 5 5 5 5 5 5 5 5 5 4 4 4 4 4 4 4 5 5 5 5 5 4 4 4 4 4 4 3 2 2 3 4 3 2 2 2 4 5 5 4 3 4 4 5 5 5 6 11 13 14 14 15 15 15 15 15 15 15 15 15 15 15 16 16 16 16 16 16 17 17 17 16 16 16 16 16 16 16 15 15 14 14
5 5 5 5 6 7 7 7 7 7 6 6 6 6 6 6 7 7 6 6 5 5 5 5 5 4 3 4 4 3 4 4 3 2 3 3 3 2 2 2 3 4 4 3 3 3 4 5 5 5 5 7 10 12 13 14 14 14 14 14 14 14 14 15 15 15 15 15 15 16 16 16 16 16 16 16 16 16 16 16 15 15 15 14 14 13
9 9 9 10 12 14 14 13 12 11 10 8 7 6 6 7 7 7 6 5 5 5 6 6 5 4 2 2 2 2 2 3 3 2 3 4 3 2 2 2 2 3 4 3 3 3 4 4 4 4 5 5 7 10 11 12 13 13 13 13 13 14 14 14 14 14 14 15 15 15 15 15 15 15 15 15 15 15 15 14 14 14 13 13 12 12
17 17 18 18 18 18 18 17 17 15 14 11 9 7 6 6 7 7 6 4 4 4 5 5 5 4 3 2 2 2 1 2 2 2 2 4 4 3 1 1 2 3 4 3 3 4 5 4 4 4 4 4 5 6 10 10 11 12 12 13 13 13 13 14 14 14 14 14 15 15 15 15 15 15 14 14 14 13 13 13 13 12 11 10 9 9
20 20 19 19 19 19 18 18 17 16 15 13 11 9 6 5 5 6 6 5 4 4 4 5 5 4 3 2 2 1 1 2 2 1 2 3 4 3 2 2 2 3 4 3 3 4 5 4 4 4 3 3 4 5 7 8 9 10 12 12 13 13 13 14 14 14 14 14 14 14 14 14 14 14 13 13 13 12 12 12 11 11 9 7 5 5
19 19 19 19 18 17 17 16 15 15 14 13 10 7 4 3 3 4 5 5 5 5 5 5 4 4 4 3 2 2 2 2 1 1 1 3 4 3 3 2 2 2 3 3 2 3 4 3 3 3 3 3 4 4 4 6 7 8 10 12 13 14 14 14 14 14 14 14 14 14 14 13 13 13 12 12 12 11 11 11 10 8 6 5 4 4
13 14 15 15 15 14 13 12 12 13 14 13 11 8 5 3 3 3 3 3 4 5 5 5 5 5 4 4 3 2 1 1 0 0 2 3 3 3 3 3 2 2 2 2 2 2 2 2 2 2 2 3 3 3 3 4 4 4 6 9 11 12 13 14 14 14 14 14 13 13 13 13 13 12 12 11 11 10 10 10 8 6 4 3 3 3
9 9 9 10 10 9 9 8 9 10 11 12 11 9 6 5 4 3 2 2 3 4 5 5 5 5 4 4 3 2 1 1 1 1 2 3 3 3 4 3 2 1 1 2 2 2 2 1 1 2 2 2 3 3 3 3 3 3 4 5 7 9 12 12 12 12 13 13 13 13 13 12 12 12 11 11 10 10 9 9 8 6 3 3 3 3
7 7 7 7 6 6 6 6 6 6 7 8 7 7 6 5 5 4 3 2 2 3 5 5 5 4 3 2 2 2 2 2 2 2 2 3 3 3 3 3 2 1 0 0 1 2 2 2 1 1 1 2 2 2 3 3 3 3 3 4 4 6 9 10 10 10 10 11 12 12 12 12 11 11 11 10 10 10 9 9 8 6 4 3 3 3
7 6 6 6 6 6 6 5 5 5 5 5 5 5 5 5 5 5 4 3 3 2 3 4 4 4 3 3 3 3 2 2 2 3 3 3 3 3 3 3 2 1 0 1 1 2 2 2 2 1 1 1 2 2 3 3 3 3 3 3 3 4 6 7 7 7 7 8 9 10 10 10 10 10 10 10 9 9 9 9 8 7 5 4 3 3
7 7 6 6 6 6 6 6 6 5 5 5 5 5 5 5 5 5 5 4 4 3 3 2 3 4 4 4 4 3 3 2 3 4 3 3 3 3 3 3 2 2 2 1 2 2 2 3 3 3 2 1 2 2 2 3 3 3 3 3 3 3 4 4 4 4 5 5 5 5 6 7 8 8 8 8 8 8 8 8 8 7 6 5 4 3
7 7 7 6 6 6 6 6 6 6 5 5 5 5 5 5 5 5 5 5 5 4 4 3 3 3 3 4 4 4 3 2 3 3 3 3 3 3 3 3 3 2 2 2 2 2 2 3 4 4 3 2 1 2 2 2 2 2 3 3 3 3 3 3 3 3 4 4 3 3 3 4 4 5 6 7 7 7 7 7 7 6 6 5 4 4
7 7 6 6 6 5 5 6 6 6 5 5 5 5 5 5 5 5 5 5 5 5 6 5 5 4 4 4 5 5 4 3 2 2 2 2 3 4 3 3 3 3 3 3 3 3 3 4 4 4 4 3 2 1 1 1 2 2 3 3 3 3 3 3 3 3 3 3 3 2 2 2 3 3 4 6 6 6 6 5 5 5 5 4 4 3
7 6 6 5 5 5 5 5 5 5 5 4 4 4 5 5 5 5 5 5 5 6 6 7 7 8 8 7 6 5 4 3 3 3 3 2 3 3 3 3 3 3 2 3 4 4 4 4 4 4 3 3 2 2 1 1 1 2 2 3 3 3 3 3 3 3 3 3 2 2 2 2 2 3 4 6 6 5 5 4 4 3 3 3 2 2
6 6 6 5 4 4 4 4 4 4 4 4 4 4 5 5 6 6 5 6 7 7 7 7 8 9 12 11 9 7 6 5 4 4 4 3 3 3 3 3 3 2 2 3 4 4 5 5 4 3 2 2 2 3 3 2 2 2 2 2 3 3 3 3 3 3 3 3 3 3 3 3 3 3 3 3 3 3 3 3 3 3 3 3 2 2
6 6 5 5 4 4 4 4 4 4 4 4 4 5 5 6 6 6 6 7 7 8 8 8 8 8 10 11 10 10 8 7 6 6 5 4 3 3 4 4 3 2 2 2 3 3 4 4 4 4 3 3 3 3 3 2 2 2 2 2 2 2 2 2 2 2 2 2 3 3 3 3 3 3 2 2 2 2 2 2 2 3 3 3 3 3
6 5 5 5 4 3 4 4 4 4 4 5 5 5 5 6 6 6 6 7 7 8 8 8 8 8 8 9 9 9 9 8 7 7 6 5 4 3 3 3 3 2 2 2 2 2 3 3 3 3 4 4 3 3 2 2 2 3 3 2 1 1 1 1 2 2 2 2 2 2 2 2 2 2 2 2 2 2 1 1 1 2 3 3 2 2
6 5 5 4 4 4 4 4 3 4 4 4 4 4 4 4 5 5 5 6 6 7 7 7 7 8 8 8 9 9 9 8 8 8 6 6 6 5 4 3 3 2 2 2 2 2 3 3 3 3 3 4 4 4 3 3 4 4 4 3 2 1 0 1 2 2 2 2 2 2 2 2 3 3 2 2 1 1 1 1 1 1 2 2 2 2
6 5 4 4 3 3 3 3 4 4 4 4 4 3 3 3 4 4 5 5 5 5 5 5 6 6 7 7 8 8 8 8 8 8 8 8 7 6 5 3 3 2 3 3 3 3 3 4 4 4 3 4 4 4 3 3 3 3 3 3 3 2 2 2 2 2 2 2 3 3 4 3 3 2 2 2 1 1 0 1 1 1 1 1 2 2
5 5 4 4 3 3 4 4 4 4 4 3 3 3 3 3 3 4 5 5 5 5 4 4 5 6 7 6 6 6 6 7 8 9 9 8 8 7 6 5 4 3 3 3 4 3 3 4 4 4 3 4 4 4 4 3 3 2 2 3 4 3 2 1 1 2 3 3 3 3 3 3 2 2 2 1 1 1 1 1 0 1 2 2 2 2
5 4 4 4 3 3 4 4 3 3 3 4 4 3 3 3 4 4 5 5 5 5 4 4 4 5 7 6 6 5 5 6 7 8 9 9 9 8 7 6 5 4 4 3 3 3 3 4 3 2 2 3 4 4 4 3 2 2 2 2 3 3 3 1 0 1 3 3 3 3 3 2 2 2 2 2 2 2 1 1 1 0 0 1 2 2
5 4 4 4 4 4 4 4 4 3 3 4 4 3 3 3 4 4 4 4 4 4 3 3 4 4 5 5 5 4 4 4 5 6 7 9 10 10 8 7 6 6 5 4 3 3 3 3 2 2 2 3 4 4 3 3 3 3 2 3 4 3 3 2 2 3 3 3 3 3 3 2 2 3 3 2 2 2 1 1 1 1 1 0 1 1
5 4 4 4 4 4 5 4 4 3 4 4 4 3 3 3 3 4 4 4 4 3 3 3 3 4 5 4 4 3 3 3 4 4 4 5 6 7 7 7 6 6 6 5 5 4 4 3 3 3 3 4 4 4 4 3 3 3 3 4 4 4 4 4 3 3 3 3 2 2 2 2 3 3 2 2 2 2 2 1 1 1 1 1 1 1
5 5 4 4 4 4 4 4 4 4 4 4 4 3 3 3 3 3 3 3 4 4 3 4 4 5 6 4 4 3 4 4 3 3 3 4 4 5 5 6 6 7 6 6 6 6 6 4 4 4 4 4 4 4 4 3 3 3 3 3 3 3 3 3 2 2 2 2 1 1 1 2 3 2 1 1 1 2 2 2 1 1 1 1 1 1
5 5 4 4 4 4 4 4 3 4 4 4 4 3 3 3 4 4 3 3 3 4 4 4 5 5 6 4 4 4 4 4 3 3 3 3 3 3 4 4 5 6 6 7 7 8 7 7 7 5 4 4 4 3 2 3 3 3 2 2 3 3 3 2 1 1 1 1 1 1 1 2 2 1 1 1 1 2 2 3 2 2 1 0 1 1
5 5 5 4 5 5 4 4 4 4 4 4 4 3 3 3 5 5 4 3 3 4 4 4 5 5 5 5 4 4 4 4 3 2 2 2 2 2 3 3 4 4 5 5 6 6 7 8 8 8 6 5 4 3 3 2 2 2 2 2 3 3 3 1 1 1 1 1 1 1 1 2 2 2 2 2 1 1 2 3 3 2 2 1 1 1
4 4 4 4 5 5 4 4 4 4 4 4 4 3 3 3 3 4 4 4 4 4 4 4 5 5 6 5 4 4 4 3 3 2 2 2 2 2 2 2 3 3 4 4 4 4 5 5 7 8 9 7 6 4 3 2 2 2 2 2 2 2 2 1 1 0 1 1 1 0 1 1 1 2 3 2 1 1 2 2 3 3 3 2 2 1
5 4 4 4 4 4 4 4 4 4 4 4 4 4 3 3 3 3 4 4 4 4 4 4 4 5 6 5 5 4 4 3 3 2 1 1 1 2 2 2 2 2 3 3 2 3 3 3 3 4 7 8 8 5 3 3 2 2 2 1 1 1 2 1 1 1 1 1 1 1 1 1 1 1 2 2 2 1 1 2 3 3 4 3 2 2
Wind_Direction
315 304 228 188 186 189 192 185 177 166 155 135 114 95 82 74 66 61 65 89 118 138 147 153 165 178 190 197 200 201 202 203 205 206 206 205 204 203 202 201 200 198 195 192 190 187 186 185 185 186 188 189 192 194 196 198 199 200 202 204 206 208 211 214 216 218 220 224 227 229 231 231 231 231 230 229 228 228 229 230 231 233 235 238 241 245
358 353 356 234 200 194 192 185 177 167 155 141 125 109 97 88 73 56 44 48 59 81 108 123 138 154 170 186 193 195 197 199 201 202 202 203 202 201 200 198 196 194 192 189 187 185 184 183 183 184 186 188 191 193 196 198 199 200 201 203 204 206 208 211 213 215 216 219 221 223 225 226 227 228 229 228 228 228 228 228 230 232 235 240 244 247
31 21 13 353 329 215 189 177 167 154 142 132 118 103 96 90 80 65 53 48 48 53 65 84 105 119 129 153 174 182 184 188 191 193 194 196 196 196 195 194 192 190 189 187 185 184 183 183 184 185 187 188 191 193 196 198 199 200 200 201 202 204 205 207 209 210 212 213 215 216 217 220 222 224 227 229 230 231 232 232 234 236 238 242 245 247
49 44 30 14 8 7 9 41 91 103 108 104 96 88 84 83 78 67 57 59 57 54 51 57 71 85 94 103 134 152 160 167 172 176 180 182 184 185 185 185 184 183 183 183 183 183 183 184 185 186 187 189 191 193 194 196 197 198 199 200 200 201 203 204 206 207 208 209 210 211 213 216 219 222 227 231 234 237 239 239 240 242 243 245 246 247
22 33 32 32 26 19 10 14 39 68 89 90 88 83 78 78 74 66 53 56 58 58 53 51 56 63 71 72 96 114 125 134 141 149 155 161 165 168 170 171 171 172 174 175 176 177 179 181 183 185 186 187 189 190 192 193 195 196 197 198 199 200 202 203 205 206 207 208 210 211 214 216 219 223 227 233 237 241 243 244 245 246 247 247 248 248
15 19 26 44 44 35 21 17 28 53 83 87 86 83 79 75 70 64 56 54 54 56 55 53 52 53 55 56 72 85 92 98 103 108 116 123 130 137 142 144 148 151 152 156 160 164 167 171 174 177 179 182 184 185 188 189 192 193 196 198 200 201 203 205 206 208 209 210 212 214 217 220 223 226 229 234 239 243 245 246 247 248 248 249 249 250
15 13 32 53 54 48 38 23 19 26 68 90 91 86 80 74 68 63 58 54 52 53 56 55 53 50 48 50 59 69 75 78 80 81 85 89 92 95 99 101 104 108 110 114 119 125 132 141 146 150 155 162 168 173 179 183 187 191 195 199 202 206 209 211 213 214 216 217 219 221 223 225 228 231 234 237 241 244 247 248 248 248 249 249 250 250
42 28 43 59 60 55 47 31 16 10 24 84 102 100 93 82 73 67 60 52 47 46 54 57 54 50 44 44 50 58 65 69 70 71 74 76 78 79 80 79 80 81 82 83 85 87 91 96 100 104 108 114 124 136 150 161 172 182 190 195 202 207 210 214 217 219 221 224 226 227 229 231 234 236 237 239 242 244 247 248 249 249 249 249 249 250
101 79 58 65 71 71 61 39 18 4 6 42 90 109 111 104 94 80 66 52 41 36 43 57 58 54 44 40 42 50 60 65 66 66 68 69 72 74 75 75 74 73 73 72 72 73 74 77 79 81 82 85 89 94 103 114 130 146 159 170 180 187 194 202 207 212 218 220 224 228 231 233 237 239 239 240 241 243 245 247 248 249 249 249 248 248
104 103 90 76 78 81 79 59 29 10 11 32 57 87 107 114 111 100 81 61 43 31 35 50 58 58 49 39 38 45 57 64 66 66 65 64 67 71 72 72 72 71 69 69 68 68 68 69 70 71 72 74 75 77 81 85 91 98 107 114 121 128 132 138 142 145 149 147 146 147 144 162 207 232 239 242 245 247 248 248 249 249 250 249 248 247
120 118 108 96 87 84 85 74 52 29 31 49 55 57 61 85 106 109 103 87 65 45 41 44 50 55 55 44 37 39 52 63 64 63 61 60 62 65 66 66 68 69 68 67 66 66 65 66 67 68 69 69 70 71 73 75 77 81 84 87 91 93 93 95 95 95 94 91 88 84 82 77 74 71 68 65 60 54 47 38 358 281 263 255 250 245
145 144 126 116 106 98 95 86 67 45 39 59 67 63 46 36 68 100 107 104 95 80 67 57 51 49 52 47 41 41 52 64 66 63 58 55 54 55 58 59 60 62 64 65 65 65 65 66 66 67 68 69 69 71 72 73 74 76 78 80 83 84 85 87 87 88 88 87 86 84 83 80 78 76 73 71 68 64 62 60 59 59 60 61 65 73
152 151 138 127 122 120 119 111 98 79 51 66 86 93 84 57 65 84 95 98 100 100 95 82 66 52 44 40 37 40 55 66 69 67 60 52 47 46 50 52 53 53 55 60 60 60 62 64 65 67 68 70 71 72 73 75 76 77 78 80 82 84 86 87 89 89 90 90 89 88 87 86 83 81 79 77 74 72 69 67 66 65 66 68 70 74
156 153 147 140 137 134 129 124 124 125 130 111 95 92 91 89 90 92 93 93 98 102 101 91 81 65 46 34 26 26 47 68 71 67 60 50 42 39 49 55 53 50 50 54 53 52 53 58 62 65 68 70 73 75 77 78 79 80 81 82 84 85 87 89 90 91 91 92 91 90 89 88 86 85 83 81 79 77 75 73 72 71 71 73 74 76
162 159 156 154 148 140 131 124 122 123 123 115 109 104 102 104 106 108 106 109 114 115 104 94 86 74 52 34 20 13 24 63 74 72 65 51 38 33 46 59 59 53 50 52 51 47 46 49 54 60 64 68 73 78 83 84 85 85 85 85 86 86 87 88 89 90 90 91 90 90 89 89 88 87 85 84 82 81 79 78 77 76 76 76 78 79
166 160 157 154 147 139 130 119 114 111 110 115 124 131 133 135 134 130 126 131 134 132 121 109 99 85 49 23 10 12 20 56 73 77 75 57 35 24 38 63 66 59 51 50 47 44 41 47 52 58 63 71 77 82 85 88 89 88 88 88 87 86 86 87 87 87 88 88 88 88 88 88 88 87 86 86 85 84 82 82 81 81 80 80 81 81
164 160 155 148 142 136 128 114 110 112 117 124 132 139 143 144 143 139 137 141 143 145 143 133 126 119 108 36 3 5 13 47 70 78 78 64 38 19 27 64 74 71 59 51 46 42 45 53 59 64 69 74 78 81 83 85 87 87 87 87 86 85 85 84 84 84 85 85 86 86 87 87 87 87 86 86 86 85 85 84 84 84 84 84 84 84
162 159 152 144 140 137 131 124 120 122 126 129 130 126 117 119 125 133 140 146 149 149 149 137 133 133 134 130 69 1 3 50 79 85 81 70 45 16 20 63 79 81 72 58 47 41 47 58 64 70 76 76 77 78 80 82 83 84 84 84 83 83 82 82 82 82 83 83 84 85 85 86 86 86 86 86 86 86 86 86 86 86 86 86 86 86
157 155 151 147 143 139 136 136 137 138 138 138 136 127 113 108 111 120 132 141 146 145 138 126 116 113 116 116 101 30 359 72 95 96 89 82 63 23 18 68 82 83 77 64 49 41 44 57 67 72 75 75 75 76 78 79 80 81 81 81 81 81 81 82 82 82 83 84 84 85 85 86 86 86 87 87 87 87 87 87 87 87 86 86 86 87
138 137 143 145 140 138 137 142 144 144 141 138 133 128 124 122 121 125 134 131 118 106 103 104 101 98 98 99 88 45 343 111 112 105 97 95 84 47 24 68 81 81 74 61 45 36 40 51 62 68 70 72 74 76 77 78 79 80 80 80 80 81 81 82 83 83 84 85 85 85 86 86 86 87 87 87 88 88 88 88 88 87 87 87 87 87
117 114 116 129 133 135 136 139 139 136 132 128 125 123 126 128 130 133 135 116 97 84 80 85 85 86 91 94 86 36 315 166 133 123 109 99 82 49 22 55 71 74 70 55 39 30 35 45 54 63 68 72 74 76 78 79 80 81 81 81 82 82 83 84 85 85 86 86 86 87 87 87 87 87 87 87 88 88 88 88 88 87 87 87 87 87
109 108 99 94 101 111 118 121 121 120 117 117 119 124 132 137 140 139 132 116 103 94 87 83 79 77 82 87 84 49 342 37 122 128 114 97 74 41 9 37 62 69 66 51 35 28 32 38 48 61 71 74 76 78 80 81 83 83 84 85 85 86 87 87 88 88 88 88 88 88 88 88 88 87 87 87 87 87 87 87 87 87 86 86 87 87
96 101 99 93 93 97 103 105 105 103 101 103 108 115 123 130 131 128 120 112 106 101 97 94 90 84 80 80 71 49 26 23 50 101 103 94 78 43 6 34 58 67 64 50 37 33 36 37 41 54 69 75 77 80 82 84 85 87 88 89 90 90 91 91 91 91 91 91 90 90 89 89 88 88 87 87 86 86 85 85 84 84 84 84 85 86
82 89 93 95 96 98 99 98 97 94 90 89 88 87 85 90 93 95 97 103 107 110 112 108 100 87 75 69 59 43 24 10 11 53 91 93 86 62 17 44 68 74 69 54 45 43 45 43 36 37 52 69 76 81 84 86 88 89 91 92 93 94 94 94 94 94 94 93 92 91 90 89 88 87 86 86 85 84 83 82 81 81 80 80 81 82
78 82 87 92 95 96 96 95 94 92 91 90 90 90 90 91 92 93 96 102 109 115 116 108 99 88 75 64 53 38 16 5 8 40 89 95 90 70 31 52 77 85 80 61 49 50 55 50 41 35 35 54 68 77 84 88 91 92 94 95 95 96 97 97 97 96 96 95 93 92 90 89 87 86 85 84 83 82 81 81 80 79 79 78 78 78
83 86 89 92 94 95 95 95 95 95 95 97 100 105 109 107 105 103 102 108 116 120 117 109 103 95 84 69 54 37 13 6 10 35 86 101 101 87 43 54 81 92 90 72 56 52 59 54 45 37 30 36 53 67 78 86 91 95 97 98 98 98 99 98 98 97 96 95 93 92 90 89 87 86 84 83 83 82 82 81 81 80 79 78 77 77
84 86 88 90 91 92 93 94 95 97 98 102 107 114 120 119 116 114 116 126 132 129 122 118 115 110 95 80 66 47 21 21 21 32 71 101 106 104 93 89 95 97 95 80 64 57 60 55 47 37 32 22 28 46 66 76 85 93 99 99 99 99 99 98 97 96 95 93 92 90 89 88 87 86 85 84 84 83 83 83 83 82 81 80 78 77
76 77 79 82 84 87 90 93 95 98 102 106 111 116 120 120 121 124 133 141 140 133 127 128 127 124 112 104 94 76 50 50 40 39 67 96 103 109 123 118 109 103 100 89 71 60 57 52 44 35 30 23 22 31 47 59 73 86 95 97 97 97 96 96 95 94 93 92 90 89 88 88 87 87 86 86 86 86 86 86 86 85 83 81 78 76
66 66 66 68 70 74 78 84 90 94 97 100 102 102 96 101 116 127 140 143 139 134 131 131 129 125 120 119 113 95 65 59 45 44 80 94 102 112 128 127 122 116 110 104 87 65 53 45 36 29 26 28 28 27 29 38 55 75 88 92 93 93 93 93 93 92 92 91 90 90 89 89 89 89 89 89 89 89 89 89 89 87 84 82 79 77
60 59 58 56 57 58 60 65 71 77 80 79 76 70 57 58 74 103 129 141 140 137 134 131 129 128 129 125 117 100 75 62 25 70 97 99 108 123 135 137 142 144 130 121 106 84 61 43 30 24 23 32 34 31 25 25 36 56 78 87 89 90 91 91 91 92 92 91 91 91 91 91 90 90 90 90 90 89 89 90 91 91 88 86 84 82
66 63 59 54 51 50 50 51 55 60 64 64 62 58 50 46 43 44 58 119 137 137 135 134 136 139 145 138 130 124 125 153 183 163 110 105 117 135 144 143 150 163 157 137 128 120 112 77 36 20 19 33 36 35 33 33 36 45 63 78 85 88 90 90 90 91 91 91 91 91 91 90 90 90 89 88 87 86 86 86 87 88 86 84 84 84
74 71 67 62 57 54 53 52 53 53 55 56 55 53 51 47 42 35 29 42 94 126 133 136 140 143 144 128 120 121 130 142 160 157 124 110 115 130 142 137 138 146 306 113 123 126 130 130 115 48 20 35 39 36 35 38 40 48 65 75 82 87 89 89 89 89 89 89 89 89 89 88 88 87 86 85 83 82 80 80 79 79 75 74 75 75
81 77 73 69 65 61 59 57 56 55 54 53 53 51 50 48 46 42 36 32 43 78 119 131 134 130 111 91 88 94 105 119 141 148 135 117 116 125 137 130 130 132 109 55 71 91 108 120 126 118 68 51 44 39 37 37 39 46 63 75 82 85 88 86 85 85 85 85 85 85 85 86 86 85 85 83 81 79 77 75 74 73 71 71 68 65
84 81 78 74 70 67 63 61 59 57 55 53 52 51 50 49 48 46 44 39 37 40 57 89 111 117 114 103 96 93 93 107 130 140 135 119 118 126 136 135 136 135 123 88 74 77 88 105 116 119 105 72 51 42 35 33 34 39 51 69 78 83 85 84 83 82 81 78 77 76 76 78 81 83 83 82 81 78 75 73 71 70 69 69 69 66
87 83 78 75 73 70 67 64 62 59 57 54 52 52 53 53 52 51 50 49 47 45 43 46 60 86 109 114 113 109 107 113 128 132 125 120 122 127 133 140 144 140 124 114 105 101 101 110 118 122 120 104 72 42 25 20 26 36 48 63 72 77 78 81 84 85 83 78 73 68 62 64 70 75 79 81 80 78 74 71 69 67 66 66 68 71
90 85 81 78 76 74 72 69 66 64 61 58 56 57 58 59 58 57 55 55 57 57 55 51 49 51 63 86 100 106 110 108 103 96 89 109 121 125 128 141 147 142 125 121 120 120 119 121 123 123 121 117 108 82 24 9 23 41 53 59 62 63 60 65 73 82 85 83 79 72 65 65 69 74 80 82 80 77 72 68 66 64 63 61 63 69
90 87 83 81 81 81 79 76 73 71 69 67 66 66 67 68 67 66 64 62 62 63 63 61 59 58 58 65 75 83 89 77 58 45 45 77 104 117 123 136 144 143 126 128 129 128 126 127 126 124 120 122 127 132 138 86 55 55 61 59 57 54 46 49 60 72 85 93 95 93 84 81 81 85 89 85 80 72 66 63 58 55 58 54 49 46
88 87 84 83 83 85 86 85 83 82 82 81 80 79 78 78 77 76 73 70 69 70 71 68 67 66 65 68 68 68 66 57 45 38 37 55 83 105 116 123 128 130 121 130 134 135 133 133 133 132 128 121 124 130 137 130 114 96 81 64 55 49 40 40 50 64 79 91 97 96 90 85 83 83 86 78 68 55 46 33 29 34 47 40 30 11
85 85 84 81 82 85 88 90 93 94 95 95 95 94 92 88 85 82 80 77 75 75 75 76 76 73 68 67 65 62 58 51 44 39 38 47 66 94 112 116 117 113 107 115 124 130 132 134 137 140 138 127 120 117 119 121 123 120 105 68 44 30 21 29 43 57 74 85 89 88 81 75 74 75 75 69 66 60 48 23 21 31 46 39 27 8
88 86 84 82 81 83 88 93 99 103 105 106 104 102 100 95 91 87 84 82 81 80 79 79 78 75 69 64 60 55 51 47 42 39 38 38 47 69 94 105 109 108 99 93 99 108 115 118 122 127 130 130 130 129 123 124 134 136 122 96 68 21 347 19 36 50 64 78 86 88 79 67 66 66 66 68 74 83 90 69 44 44 55 64 55 29
94 91 89 87 84 83 85 90 96 101 105 107 105 102 101 100 98 95 91 88 85 84 83 82 79 75 69 62 56 51 48 45 42 40 39 36 41 51 69 81 91 96 90 78 76 83 99 107 111 113 116 120 123 124 125 136 144 145 134 128 140 163 162 58 53 53 58 64 73 82 82 69 60 55 54 53 58 80 118 117 101 72 62 87 101 105
99 98 99 97 93 89 86 86 88 89 92 94 95 95 98 102 104 104 101 96 92 90 88 89 86 82 75 66 57 50 46 44 42 41 40 37 38 42 50 54 62 77 88 80 73 70 79 95 106 114 123 123 121 118 121 132 137 136 128 129 126 114 81 45 26 34 58 54 53 58 68 66 60 52 49 41 21 354 32 113 125 123 114 116 127 136
101 102 104 103 102 99 96 89 85 83 82 80 80 80 82 91 100 103 102 99 98 96 93 92 92 90 85 77 66 55 47 43 42 42 42 40 39 40 43 43 48 62 84 86 79 71 67 76 87 103 120 121 119 119 124 125 116 105 103 123 122 113 87 358 342 11 47 51 52 54 59 63 62 57 48 34 10 351 353 357 92 149 152 155 157 157
106 107 108 106 103 98 92 87 84 82 82 81 80 77 73 81 92 97 97 97 97 97 95 93 90 88 85 82 77 68 56 47 44 44 44 44 44 45 46 44 44 48 62 81 89 86 73 67 68 75 92 99 105 110 117 114 104 89 85 105 112 118 128 147 105 51 50 49 46 45 48 53 50 42 29 16 0 350 346 340 327 300 190 159 153 155
109 109 108 106 102 97 93 90 88 86 86 86 85 84 80 81 88 94 97 99 99 99 98 98 94 88 83 82 81 77 69 57 50 46 45 45 47 49 51 51 50 50 55 62 75 88 93 86 76 64 64 80 88 94 99 100 94 85 78 78 82 87 91 87 79 73 69 59 46 33 26 38 44 41 28 6 347 331 320 310 289 260 247 178 146 144
105 104 103 101 97 96 95 95 94 91 90 88 86 85 83 82 86 91 96 98 97 94 87 85 87 90 93 92 89 84 80 69 61 53 48 44 44 46 51 56 59 62 63 60 60 62 76 90 94 87 74 74 71 68 70 84 89 87 82 78 75 70 59 53 56 66 78 74 58 29 12 35 49 52 35 356 325 310 303 288 258 231 222 191 160 147
102 102 102 100 98 96 95 95 95 93 92 90 86 83 80 81 82 84 84 86 87 86 81 77 82 88 92 93 92 90 90 85 77 65 56 52 51 51 55 58 61 65 70 68 63 59 57 61 69 79 87 84 74 60 46 59 75 86 87 77 72 68 62 53 50 59 77 84 84 45 17 47 56 59 45 348 321 314 313 308 293 263 223 186 152 139
103 104 104 103 101 99 96 95 94 95 94 93 89 83 77 80 82 82 78 78 82 85 86 84 86 89 90 87 86 88 93 91 85 74 62 55 52 53 55 58 61 63 64 65 63 60 55 51 50 56 73 88 91 83 58 54 62 75 83 78 77 79 78 69 53 50 72 91 113 124 99 91 97 106 103 40 358 335 323 318 314 310 310 4 93 102
101 103 104 103 102 101 100 98 97 97 98 97 93 85 75 74 77 80 79 78 80 83 87 91 94 95 94 90 87 85 85 84 77 64 47 39 37 41 46 50 53 55 52 50 48 47 46 44 43 44 54 74 90 97 89 69 61 63 68 76 84 90 95 93 75 52 73 92 115 130 124 131 140 141 124 96 47 339 321 319 317 319 329 352 25 50
97 100 103 103 104 104 105 103 100 99 99 98 95 90 78 66 62 65 73 78 81 84 89 94 98 99 100 98 94 89 82 77 67 52 28 16 21 30 34 38 46 51 47 38 31 28 30 31 31 33 40 53 69 88 105 93 73 58 55 64 84 104 116 129 147 155 116 123 124 119 108 126 129 123 112 103 86 1 328 324 321 318 320 336 1 18
96 97 99 101 103 105 105 103 102 101 100 99 96 92 85 77 73 74 77 82 86 90 92 94 97 101 104 104 101 96 90 84 78 65 32 14 24 41 45 46 56 65 66 58 47 41 43 37 25 21 26 33 42 60 119 123 107 85 68 61 82 111 122 141 171 179 137 135 133 124 99 90 92 99 103 99 88 49 352 333 321 315 313 325 344 356